Seattle, WA

8:26 PM PST on February 07, 2016 (GMT -0800)
Boeing Field-King County International

Weather History for KBFI - January, 2012

Change the Weather History Date:

Friday, January 27, 2012

  Actual Average Record
Temperature  
Mean Temperature 36 °F -  
Max Temperature 44 °F 45 °F 58 °F (1952)
Min Temperature 28 °F 34 °F 11 °F (1957)
Degree Days  
Heating Degree Days 29    
Moisture  
Dew Point 29 °F    
Average Humidity 81    
Maximum Humidity 96    
Minimum Humidity 53    
Precipitation  
Precipitation 0.00 in - - ()
Sea Level Pressure  
Sea Level Pressure 30.58 in    
Wind  
Wind Speed 2 mph (SE)    
Max Wind Speed 6 mph    
Max Gust Speed -    
Visibility 10 miles    
Events      
Averages and records for this station are not official NWS values.
T = Trace of Precipitation, MM = Missing Value Source: NWS Daily Summary

Daily Weather History Graph

Daily Weather History Graph

Search for Another Location

Airport or City:

Trip Planner

Search our weather history database for the weather conditions in past years. The results will help you decide how hot, cold, wet, or windy it might be!

Date:

Astronomy

Jan. 27, 2012 Rise Set
Actual Time 7:42 AM PST 5:02 PM PST
Civil Twilight 7:08 AM PST 5:35 PM PST
Nautical Twilight 6:31 AM PST 6:13 PM PST
Astronomical Twilight 5:55 AM PST 6:49 PM PST
Moon 9:15 AM PST (1/27) 10:25 PM PST (1/27)
Length of Visible Light 10h 27m
Length of Day
9h 20m
Waxing Crescent, 20% of the Moon is Illuminated
Jan 27
Waxing Crescent
Jan 30
First Quarter
Feb 7
Full
Feb 14
Last Quarter
Feb 21
New

Hourly Weather History & Observations

Time (PST) Temp. Windchill Dew Point Humidity Pressure Visibility Wind Dir Wind Speed Gust Speed Precip Events Conditions
12:53 AM 32.0 °F - 30.0 °F 92% 30.61 in 10.0 mi Calm Calm - N/A   Clear
1:53 AM 30.9 °F - 30.0 °F 96% 30.61 in 10.0 mi Calm Calm - N/A   Mostly Cloudy
2:53 AM 30.9 °F - 28.9 °F 92% 30.62 in 8.0 mi Calm Calm - N/A   Clear
3:53 AM 30.9 °F - 30.0 °F 96% 30.64 in 9.0 mi Calm Calm - N/A   Mostly Cloudy
4:53 AM 28.9 °F 23.9 °F 28.0 °F 96% 30.64 in 9.0 mi SE 4.6 mph - N/A   Partly Cloudy
5:53 AM 30.0 °F 26.5 °F 28.9 °F 96% 30.64 in 9.0 mi SE 3.5 mph - N/A   Overcast
6:53 AM 28.0 °F 24.2 °F 27.0 °F 96% 30.63 in 9.0 mi SE 3.5 mph - N/A   Scattered Clouds
7:53 AM 28.0 °F 21.7 °F 27.0 °F 96% 30.61 in 10.0 mi SE 5.8 mph - N/A   Scattered Clouds
8:53 AM 30.0 °F 24.1 °F 28.9 °F 96% 30.62 in 7.0 mi SSE 5.8 mph - N/A   Clear
9:53 AM 34.0 °F 29.8 °F 30.0 °F 85% 30.62 in 10.0 mi SE 4.6 mph - N/A   Clear
10:53 AM 37.0 °F - 32.0 °F 82% 30.61 in 10.0 mi Calm Calm - N/A   Clear
11:53 AM 39.9 °F 37.8 °F 30.9 °F 70% 30.60 in 10.0 mi SE 3.5 mph - N/A   Partly Cloudy
12:53 PM 43.0 °F - 28.9 °F 58% 30.58 in 10.0 mi Calm Calm - N/A   Clear
1:53 PM 44.1 °F 41.5 °F 28.0 °F 53% 30.57 in 10.0 mi Variable 4.6 mph - N/A   Clear
2:53 PM 44.1 °F - 28.0 °F 53% 30.57 in 10.0 mi Calm Calm - N/A   Partly Cloudy
3:53 PM 42.8 °F 41.1 °F 28.4 °F 57% 30.56 in 10.0 mi NW 3.5 mph - N/A   Clear
4:53 PM 42.1 °F - 30.0 °F 62% 30.55 in 10.0 mi Calm Calm - N/A   Clear
5:53 PM 39.0 °F - 28.9 °F 67% 30.54 in 10.0 mi Calm Calm - N/A   Clear
6:53 PM 39.0 °F 36.8 °F 30.0 °F 70% 30.51 in 10.0 mi Variable 3.5 mph - N/A   Clear
7:53 PM 35.1 °F - 28.9 °F 78% 30.51 in 10.0 mi Calm Calm - N/A   Clear
8:53 PM 34.0 °F - 28.9 °F 82% 30.51 in 10.0 mi Calm Calm - N/A   Clear
9:53 PM 32.0 °F 27.5 °F 28.9 °F 88% 30.51 in 10.0 mi SE 4.6 mph - N/A   Clear
10:53 PM 33.1 °F - 28.9 °F 85% 30.51 in 10.0 mi Calm Calm - N/A   Clear
11:53 PM 32.0 °F 28.7 °F 28.9 °F 88% 30.51 in 10.0 mi SE 3.5 mph - N/A   Clear